User: anonymous
Location: Mentone
(34.5413°N, 85.5351°W)
Time: 03:35:46
(UTC-05:00)
Language:

AO-Echo - Orbit

View from above orbital plane
View from above orbital plane
View from above satellite
View from above satellite

Ground track
Ground track

The orbit data is extracted from the following two-line orbital elements,

1 28375U 04025K   14212.91100826  .00000120  00000-0  48779-4 0  8994
2 28375 098.2524 158.3053 0082540 216.4150 143.1408 14.41406361530346
Epoch (UTC): 31 July 2014 21:51:51
Eccentricity: 0.0082540
inclination: 98.2524°
perigee height: 695 km
apogee height: 813 km
right ascension of ascending node: 158.3053°
argument of perigee: 216.4150°
revolutions per day: 14.41406361
mean anomaly at epoch: 143.1408°
orbit number at epoch: 53034

The dashed part of the orbit path shows where the satellite is in the earth's shadow,  

DLR